軌道要素
Epoch 2010 Mar. 25.0 TT = JDT 2455280.5
T 2010 Apr. 7.93977 TT MPC
q 2.3987389 (2000.0) P Q
n 0.03880527 Peri. 8.29926 -0.99396281 +0.10928277
a 8.6405669 Node 177.89929 -0.10957298 -0.98415845
e 0.7223864 Incl. 15.43700 -0.00562898 -0.13960454
P 25.4
From 328 observations 2010 Feb. 17-June 25, mean residual 0".5.
|